sat.trackr.live / text

‹ back to catalog

YAOGAN-40 03C

NORAD 65546 · 2025-199C

PAYLOAD ACTIVE UNKNOWN

§ Identity

Operator
Country
PRC
Launch date
2025-09-06
Launch site
TAISC
Launch vehicle
Mass (kg)
RCS (m²)

External: N2YO · Heavens-Above · Gunter

§ Orbital elements

Epoch: 2026-09-20T14:33:05.852736Z

Period
101.95 min
Inclination
85.9968°
Eccentricity
0.0002114
Mean motion
14.12463604 rev/d
Perigee alt
849.4 km
Apogee alt
852.5 km
Semi-major
7,229.1 km
B*
4.5198e-5
RAAN
1.2707°
Arg perigee
108.0207°
Mean anomaly
252.1206°
Rev number
5,350

§ Raw data

YAOGAN-40 03C1 65546U 25199C   26263.60631774  .00000102  00000+0  45198-4 0  99982 65546  85.9968   1.2707 0002114 108.0207 252.1206 14.12463604 53508

JSON: /api/v1/satellites/65546 · /tle

For live sub-satellite position, see the globe view (requires WebGL).

§ Visibility from observer

Set your observer location to see the next 7 days of passes ≥ 10°. The values pass through the URL so the page stays shareable.

No JS? Fill the form by hand. The geolocation button needs JavaScript.